Voltar ao catálogo

STARLINK-37918

AtivoComunicaçõesVLEO
NORAD 69831·PAYLOAD·🇺🇸 United States

Lançado Jul 5, 2026 de Cape Canaveral Space Force Station

Loading…

Próximas Passagens (próximas 24 horas)

TLE

AtualizadoSource: CelesTrak SupGP

Época: Sep 15, 2026, 03:39 UTC

1 69831C 26154N   26258.15256944  .00070059  00000+0  20682-2 0  2582
2 69831  53.1592 356.7536 0001018  86.8503  28.4517 15.34382055    13

Acompanhe STARLINK-37918 em tempo real com AllMySat

Download on the App Store